{"data":{"norad_id":58281,"intl_designator":"2023-174AB","name":"AETHER-1","alt_names":[],"object_type":"PAYLOAD","status":"ACTIVE","operator":null,"country":"CA","launch_date":"2023-11-11","launch_site_code":"AFWTR","launch_vehicle":null,"mission":null,"orbit_class":"UNKNOWN","rcs_meters":null,"size_class":null,"mass_kg":null,"dimensions":null,"purposes":[],"wikipedia_slug":null,"has_3d_model":false,"image_url":null,"decayed_at":null,"tle_current":{"epoch":"2026-07-19T05:06:07.354368Z","epoch_age_seconds":5707342,"freshness":"OLD","line1":"1 58281U 23174AB  26200.21258512  .09369101  25320-5  38160-3 0  9994","line2":"2 58281  97.3533 297.7295 0016382 268.8113  91.1311 16.41994178151076","mean_motion":16.41994178,"eccentricity":0.0016382,"inclination_deg":97.3533,"raan_deg":297.7295,"arg_perigee_deg":268.8113,"mean_anomaly_deg":91.1311,"bstar":0.0003816,"rev_number":15107,"period_min":87.698240303992,"perigee_km":149.79148688857,"apogee_km":171.21468726987,"semimajor_km":6538.6400870792,"source":"CELESTRAK","updated_at":"2026-07-19T09:00:26.562602Z"}}}